Regional Weather Roundup
Issued by NWS

Home | Current Version | Previous Version | Text Only | Print | Product List | Glossary On
Versions: 1 2 3 4 5 6 7 8 9 10 11 12 13 14 15 16 17 18 19 20 21 22 23 24 25 26 27 28 29 30 31 32 33 34 35 36 37 38 39 40 41 42 43 44 45 46 47 48 49 50
614
ASUS44 KJAN 190503
RWRMS

MISSISSIPPI HOURLY WEATHER ROUNDUP
NATIONAL WEATHER SERVICE JACKSON MS
1100 PM CST THU DEC 18 2014

NOTE: "FAIR: INDICATES FEW OR NO CLOUDS BELOW 12,000 FEET WITH NO
SIGNIFICANT WEATHER AND/OR OBSTRUCTIONS TO VISIBILITY.

MSZ001>002-007>008-010>013-018>021-025>028-034>036-190600-
NORTHWEST MISSISSIPPI

CITY           SKY/WX    TMP DP  RH WIND       PRES   REMARKS
CLARKSDALE     CLOUDY    45  41  87 N7        30.24S
CLEVELAND      CLOUDY    46  44  93 N7        30.22F
GREENWOOD      CLOUDY    48  40  73 NE5       30.21S
GREENVILLE     CLOUDY    48  44  86 N10       30.21S
GRENADA        CLOUDY    45  39  81 CALM      30.23S
OXFORD         CLOUDY    41  37  87 CALM      30.25R
$$

MSZ003>006-009-014>017-022>024-029>033-037>039-190600-
NORTHEAST MISSISSIPPI

CITY           SKY/WX    TMP DP  RH WIND       PRES   REMARKS
COLUMBUS AFB   PTCLDY    39  36  87 W1        30.22R
CORINTH        CLOUDY    43  37  81 CALM      30.23R
GOLDN TRIANGLE CLOUDY    39  34  81 CALM      30.22R
TUPELO         CLOUDY    45  38  76 NE5       30.23R
$$

MSZ040-058-190600-
CENTRAL MISSISSIPPI

CITY           SKY/WX    TMP DP  RH WIND       PRES   REMARKS
JACKSON INTL   CLOUDY    46  44  93 CALM      30.19F
JACKSON HAWKNS CLOUDY    47  44  90 E5        30.18F
MERIDIAN KEY   CLOUDY    45  41  86 N3        30.21R
MERIDIAN NAS   CLOUDY    40  37  89 CALM      30.21R
VICKSBURG      CLOUDY    49  45  86 CALM      30.19S
$$

MSZ059>079-190600-
SOUTH MISSISSIPPI

CITY           SKY/WX    TMP DP  RH WIND       PRES   REMARKS
HATTIESBURG    CLOUDY    51  49  92 CALM      30.19F
MCCOMB         CLOUDY    51  49  92 NE3       30.16S
NATCHEZ        CLOUDY    48  46  93 NE5       30.16F VSB 1
PINE BELT      CLOUDY    48  46  93 CALM      30.19F
$$

MSZ080>082-190600-
COASTAL MISSISSIPPI

CITY           SKY/WX    TMP DP  RH WIND       PRES   REMARKS
BILOXI         CLOUDY    59  47  66 NE5       30.16R
PASCAGOULA     CLOUDY    57  45  64 NE6       30.17R
GULFPORT       LGT RAIN  58  48  69 N7        30.16R
$$



USA.gov is the U.S. government's official web portal to all federal, state and local government web resources and services.